www.pogodaiklimat.ru

Погода и климат >> Архив погоды >> Россия >> Оренбургская область >> Илек


ПОГОДА в Илеке

  • Прогноз погоды в Илеке
  • Монитор погоды в Илеке

АРХИВ ПОГОДЫ в Илеке

Время (UTC), дата Ветер
(напр.,м/с)
 
Видим.   Явления Облачность Т
(С)
Тd
(С)
f
(%)
Тe
(С)
Тes
(С)
Комфортность P
(гПа)
Po
(гПа)
Тmin
(С)
Tmax
(С)
R
(мм)
R24
(мм)
S
(см)
09 13.09 СЗ 3 10 км ясно +24.9 +5.1 28 +24 +32 комфорт 1025.5 1017.4
12 13.09 З 2 10 км 3/3 1000 м
[Cu med, cong]
+26.0 +3.7 24 +25 +27 комфорт 1023.6 1015.6
15 13.09 штиль 0 10 км 3/0
[Ac lent]
+19.8 +7.8 46 +21 +21 комфорт 1022.9 1014.7 +26.3
18 13.09 штиль 0 10 км ясно +13.3 +8.7 74 +13 +13 1023.1 1014.7
21 13.09 штиль 0 10 км ясно +9.6 +7.4 86 +9 +9 1022.6 1014.1
00 14.09 штиль 0 10 км ясно +7.3 +5.9 91 +6 +6 1022.4 1013.8
03 14.09 штиль 0 10 км ясно +7.4 +6.0 91 +6 +7 1022.2 1013.6 +6.1
06 14.09 штиль 0 10 км ясно +21.6 +5.3 35 +22 +30 комфорт 1021.2 1013.1
09 14.09 З 3 10 км 8/8 1000 м
[Cu med, cong]
+27.4 +0.9 18 +25 +27 комфорт 1019.6 1011.6
12 14.09 ЮЗ 2 10 км 8/8 1000 м
[Cu med, cong]
+27.0 +0.1 17 +25 +26 комфорт 1018.1 1010.1
15 14.09 Ю 1 10 км 6/0
[Ac trans]
+19.9 +4.7 37 +22 +22 комфорт 1017.7 1009.5 +27.5
18 14.09 Ю 2 10 км 10/0
[Ac und]
+17.3 +2.4 37 +18 +18 1017.4 1009.1
21 14.09 Ю 3 10 км 10/6 600 м
[Sc Ac und]
+17.7 +2.1 35 +18 +18 1016.7 1008.5
00 15.09 Ю 1 10 км 10/6 600 м
[Sc Ac und]
+16.5 +2.6 39 +17 +17 1016.1 1007.9
03 15.09 ЮВ 1 10 км 10/6 600 м
[Sc Ac und]
+15.1 +4.0 47 +16 +16 1015.9 1007.6 +14.9
06 15.09 ЮЗ 4 10 км 9/0
[Ac As]
+21.2 +2.9 30 +21 +23 комфорт 1015.9 1007.7
09 15.09 ЮЗ 7-13
{14}
10 км 10/3 1000 м
[Cu med, cong Ac As Ci fib]
+26.2 -0.4 17 +24 +25 комфорт 1014.2 1006.2
12 15.09 СЗ 1
{14}
10 км 10/3 600 м
[Cb calv Ac lent]
+23.0 +4.0 29 +23 +23 комфорт 1013.3 1005.3
15 15.09 С 1 10 км 10/0
[Ac lent]
+18.3 +9.0 55 +20 +20 1013.8 1005.6 +26.6
18 15.09 З 1 4000 м слаб. ливневой дождь 10/3 600 м
[Cb calv Ac lent]
+13.4 +10.3 81 +14 +14 1015.0 1006.6
21 15.09 штиль 0 10 км {ливн. осадки} 10/3 600 м
[Cb calv Ac lent Cs]
+10.7 +9.0 89 +10 +10 1013.9 1005.5
00 16.09 штиль 0 4000 м дымка {ливн. осадки} 10/0
[As trans]
+9.8 +9.3 97 +9 +9 1013.9 1005.5
03 16.09 штиль 0 2000 м дымка 10/0
[As trans]
+9.0 +8.8 99 +8 +8 1014.3 1005.9 +9.0 3
06 16.09 штиль 0 10 км 10/0
[As trans]
+11.6 +9.2 85 +11 +14 1014.5 1006.1 +8.6
09 16.09 штиль 0 10 км 10/0
[As trans]
+15.9 +5.3 49 +16 +21 1013.8 1005.5
12 16.09 ЮЗ 2 10 км 10/3 600 м
[Sc Ac As]
+16.4 +3.9 43 +17 +17 1012.4 1004.1
15 16.09 Ю 1 10 км 10/0
[Ac As Ci fib]
+14.7 +4.8 51 +15 +15 1010.6 1002.4 +16.8
18 16.09 Ю 2 10 км 10/0
[Ac As Ci fib]
+13.3 +4.8 56 +13 +13 1009.4 1001.1
21 16.09 ЮЗ 5 10 км 10/0
[Ac As Ci fib]
+14.1 +3.9 50 +13 +13 1007.5 999.2
00 17.09 ЮЗ 3 10 км 10/0
[Ac As Ci fib]
+14.3 +3.8 49 +14 +14 1006.9 998.7
03 17.09 ЮЗ 3 10 км {ливн. осадки} 10/3 600 м
[Cb calv Ac lent]
+12.8 +5.2 60 +12 +12 1007.5 999.2 +12.8 0.0
06 17.09 З 2 10 км {дождь} 10/0
[As trans]
+14.5 +5.8 56 +14 +17 1007.6 999.4 +11.9
09 17.09 СВ 1 10 км 10/0
[Ac trans]
+15.8 +7.6 58 +17 +21 1007.4 999.2
12 17.09 В 1 10 км 10/0
[Ac lent]
+18.3 +9.3 56 +20 +20 1005.6 997.5
15 17.09 штиль 0 10 км 10/0
[Ac und]
+16.3 +10.6 69 +16 +16 1004.8 996.6 +19.1 0.0
18 17.09 В 1 10 км 10/0
[Ac und]
+14.3 +10.0 75 +15 +15 1004.7 996.5
21 17.09 штиль 0 10 км 10/0
[Ac und]
+13.3 +10.0 80 +13 +13 1004.2 995.9
00 18.09 СЗ 1 10 км 10/0
[Ac und]
+13.2 +9.6 79 +13 +13 1004.2 995.9
03 18.09 СЗ 1 4000 м слаб. ливневой дождь 10/4 600 м
[Cb calv Ac lent]
+11.6 +10.7 94 +11 +11 1004.9 996.6 +11.6 0.4
06 18.09 Ю 2 10 км {ливн. осадки} 8/4 600 м
[Cb calv Ac trans Ci fib]
+13.6 +11.9 89 +13 +15 1005.4 997.2 +11.6
09 18.09 З 3 10 км 9/9 1000 м
[Cu med, cong]
+19.1 +11.3 61 +20 +21 1005.2 997.1
12 18.09 З 4 10 км 6/6 1000 м
[Cu med, cong]
+21.1 +5.5 36 +22 +22 комфорт 1005.2 997.1
15 18.09 З 1 10 км ясно +15.5 +6.0 53 +16 +16 1006.1 997.9 +21.7 1
18 18.09 ЮВ 2 10 км ясно +10.5 +5.0 69 +9 +9 1005.1 996.8
21 18.09 ЮВ 3 10 км 10/0
[Ac lent]
+14.7 +7.8 63 +14 +14 1000.6 992.5
00 19.09 ЮЗ 7-13
{13}
4000 м слаб. ливневой дождь 10/3 600 м
[Cb calv Ac lent]
+16.4 +13.5 83 +15 +15 997.7 989.6
03 19.09 ЮЗ 8-16
{17}
10 км {ливн. осадки} 6/4 600 м
[Cb calv Ac lent]
+12.8 +9.2 79 +10 +10 999.7 991.4 +9.9 1
06 19.09 З 9-16
{19}
10 км {ливн. осадки} 9/9 1000 м
[Cu hum]
+12.1 +5.0 62 +9 +9 1002.4 994.1
09 19.09 ЮЗ 9-18
{18}
10 км 9/9 1000 м
[Cb calv]
+12.5 +3.3 53 +10 +10 1005.1 996.8
12 19.09 З 6
{18}
10 км 8/6 600 м
[Sc Ac As]
+12.8 +4.4 57 +11 +11 1009.1 1000.8
15 19.09 ЮЗ 2
{10}
10 км 4/0
[Ac As]
+11.6 +5.3 65 +11 +11 1011.8 1003.4 +13.6
18 19.09 ЮЗ 3 10 км 4/0
[Ac As]
+9.5 +5.2 75 +7 +7 1013.7 1005.2
21 19.09 З 3 10 км ясно +8.4 +5.5 82 +6 +6 1014.8 1006.3
00 20.09 штиль 0 10 км ясно +5.0 +3.7 91 +4 +4 1015.9 1007.3
03 20.09 Ю 1 10 км 4/0
[Ac lent Ci fib]
+3.8 +3.2 96 +2 +2 1016.8 1008.2 +3.5
06 20.09 ЮЗ 2 10 км 3/0
[Ac lent]
+12.1 +6.7 70 +11 +15 1017.7 1009.3

 

Местоположение метеостанции Илек (Оренбургская область, Россия): широта 51.52 долгота 53.37 высота над уровнем моря 67 м.

В архиве по умолчанию представлена погода в Илеке за последнюю неделю. Архивные данные за месяц целиком и за предыдущие месяцы, начиная с января 2011 года, Вы можете получить, выбрав интересующий диапазон дат из раскрывающегося списка и нажав кнопку "Ввод!".


*Определитесь, кто Вы:
робот инопланетянин человек

Внимание! Время в таблицах - всемирное. Для получения местного времени необходимо прибавить поправку, которая равна 5 ч.

Смотрите также архив погоды в соседних городах и на ближайших метеорологических станциях:

Погода в Аксае (Западно-Казахстанская область, Казахстан) (46 км)
Погода в Новосергиевке (Оренбургская область, Россия) (65 км)
Погода в Чингирлау (Западно-Казахстанская область, Казахстан) (71 км)
Погода в Сорочинске (Оренбургская область, Россия) (103 км)
Погода в Оренбурге (Оренбургская область, Россия) (121 км)
Погода в Соль-Илецк (Оренбургская область, Россия) (122 км)
Погода в Анкаты (Западно-Казахстанская область, Казахстан) (123 км)
Погода в Первомайском (Оренбургская область, Россия) (126 км)
Погода в Татарской Каргале (Оренбургская область, Россия) (131 км)
Погода в Январцево (Западно-Казахстанская область, Казахстан) (147 км)

Пояснения к столбцам:

Ветер - указаны скорость ветра в м/с - средняя за 10 мин, порывы в срок и между сроками (в фигурных скобках) и направление, откуда дует ветер: С - северный, СВ - северо-восточный, В - восточный, ЮВ - юго-восточный, Ю - южный, ЮЗ - юго-западный, З - западный, СЗ - северо-западный.
Видимость - горизонтальная дальность видимости в метрах или километрах. При видимости от 1 до 10 км при отсутствии осадков обычно наблюдается дымка, при ухудшении видимости до 1 км и менее - туман. В сухую погоду видимость может ухудшаться дымом, пылью или мглою.
Явления - указаны атмосферные явления, наблюдавшиеся в срок или в последний час перед сроком; фигурными скобками обозначены явления, наблюдавшиеся между сроками (за 1-3 часа до срока); квадратными скобками обозначены град или гололедные отложения с указанием их диаметра в мм.
Облачность - указаны через наклонную черту общая и нижняя облачность в баллах и высота нижней границы облаков в метрах; квадратными скобками обозначены формы облаков: Ci - перистые, Cs - перисто-слоистые, Cc - перисто-кучевые, Ac - высококучевые, As - высокослоистые, Sc - слоисто-кучевые, Ns - слоисто-дождевые, Cu - кучевые, Cb - кучево-дождевые. Подробнее классификацию облаков см. в Атласе облаков (PDF).
T - Температура воздуха - температура, измеренная на высоте 2 м над землей.
Td - Температура точки росы - температура, при понижении до которой содержащийся в воздухе водяной пар достигнет насыщения.
f - Относительная влажность воздуха - влажноcть воздуха, измеренная на высоте 2 м над землей.
Te - Эффективная температура - температура, которую ощущает одетый по сезону человек в тени. Характеристика душности погоды. При расчете учитывается влияние влажности воздуха и скорости ветра на теплоощущения человека.
Tes - Эффективная температура на солнце - температура, которую ощущает человек, с поправкой на солнечный нагрев. Характеристика знойности погоды. Зависит от высоты солнца над горизонтом, облачности и скорости ветра. Ночью, в пасмурную погоду, а также при ветре 12 м/с и более поправка равна нулю.
P - Атмосферное давление - приведенное к уровню моря атмосферное давление.
Po - Атмосферное давление - измеренное на уровне метеостанции атмосферное давление.
Tmin - Минимальная температура - минимум температуры воздуха на высоте 2 м над землей.
Tmax - Максимальная температура - максимум температуры воздуха на высоте 2 м над землей.
R - Количество осадков - Количество выпавших осадков за период времени, мм. При наведении курсора мыши на число - период времени, за который выпало указанное количество осадков.
R24 - Количество осадков - Количество выпавших осадков за 24 часа, мм.
S - Снежный покров - Высота снежного покрова, см. При наведении курсора мыши на число - состояние снежного покрова и степень покрытия местности в баллах.